Bloomington, IN

10:55 AM EDT on May 28, 2017 (GMT -0400)
Monroe County

Weather History for KBMG - May, 2012

Change the Weather History Date:

Wednesday, May 9, 2012

  Actual Average Record
Temperature  
Mean Temperature 58 °F 60 °F  
Max Temperature 68 °F 72 °F 84 °F (2004)
Min Temperature 48 °F 49 °F 44 °F (1999)
Degree Days  
Heating Degree Days 7 6  
Month to date heating degree days 7 58  
Since 1 July heating degree days 4109 5172  
Cooling Degree Days 0 1  
Month to date cooling degree days 61 9  
Year to date cooling degree days 109 28  
Growing Degree Days 7 (Base 50)    
Moisture  
Dew Point 46 °F    
Average Humidity 68    
Maximum Humidity 93    
Minimum Humidity 42    
Precipitation  
Precipitation 0.02 in 0.17 in 0.82 in (2000)
Month to date precipitation 1.87 1.61  
Year to date precipitation 11.32 16.26  
Sea Level Pressure  
Sea Level Pressure 29.89 in    
Wind  
Wind Speed 6 mph (NW)    
Max Wind Speed 22 mph    
Max Gust Speed 30 mph    
Visibility 10 miles    
Events Rain    
T = Trace of Precipitation, MM = Missing Value Source: NWS Daily Summary

Daily Weather History Graph

Daily Weather History Graph

Search for Another Location

Airport or City:

Trip Planner

Search our weather history database for the weather conditions in past years. The results will help you decide how hot, cold, wet, or windy it might be!

Date:

Astronomy

May. 09, 2012 Rise Set
Actual Time 6:38 AM EDT 8:47 PM EDT
Civil Twilight 6:09 AM EDT 9:17 PM EDT
Nautical Twilight 5:32 AM EDT 9:53 PM EDT
Astronomical Twilight 4:53 AM EDT 10:33 PM EDT
Moon No Moon Rise 9:53 AM EDT (5/9)
Length of Visible Light 15h 08m
Length of Day
14h 09m
Waning Gibbous, 83% of the Moon is Illuminated
May 9
Waning Gibbous
May 12
Last Quarter
May 20
New
May 28
First Quarter
Jun 4
Full

Hourly Weather History & Observations

Time (EDT) Temp. Dew Point Humidity Pressure Visibility Wind Dir Wind Speed Gust Speed Precip Events Conditions
12:53 AM 55.0 °F 48.0 °F 77% 29.90 in 10.0 mi Calm Calm - N/A   Scattered Clouds
1:53 AM 55.9 °F 48.0 °F 75% 29.90 in 10.0 mi Calm Calm - N/A   Partly Cloudy
2:53 AM 55.0 °F 48.9 °F 80% 29.90 in 10.0 mi West 3.5 mph - N/A   Partly Cloudy
3:53 AM 54.0 °F 48.0 °F 80% 29.89 in 10.0 mi Calm Calm - N/A   Clear
4:53 AM 53.1 °F 46.9 °F 80% 29.88 in 10.0 mi Calm Calm - N/A   Partly Cloudy
5:53 AM 51.1 °F 46.9 °F 86% 29.88 in 10.0 mi Calm Calm - N/A   Clear
6:53 AM 50.0 °F 46.9 °F 89% 29.89 in 10.0 mi West 3.5 mph - N/A   Clear
7:53 AM 54.0 °F 48.0 °F 80% 29.90 in 10.0 mi West 3.5 mph - N/A   Clear
8:53 AM 59.0 °F 46.0 °F 62% 29.90 in 10.0 mi Variable 6.9 mph - N/A   Partly Cloudy
9:53 AM 60.1 °F 46.9 °F 62% 29.90 in 10.0 mi Variable 6.9 mph - N/A   Scattered Clouds
10:53 AM 64.0 °F 44.1 °F 48% 29.90 in 10.0 mi NW 8.1 mph 18.4 mph N/A   Clear
11:53 AM 64.0 °F 44.1 °F 48% 29.90 in 10.0 mi WNW 8.1 mph 16.1 mph N/A   Scattered Clouds
12:53 PM 66.0 °F 44.1 °F 45% 29.89 in 10.0 mi NW 9.2 mph 19.6 mph N/A   Scattered Clouds
1:53 PM 64.9 °F 42.1 °F 43% 29.88 in 10.0 mi WNW 9.2 mph 20.7 mph N/A   Mostly Cloudy
2:53 PM 64.9 °F 41.0 °F 42% 29.87 in 10.0 mi WNW 9.2 mph - N/A   Mostly Cloudy
3:53 PM 66.0 °F 42.1 °F 42% 29.86 in 10.0 mi West 13.8 mph 21.9 mph N/A   Mostly Cloudy
4:53 PM 66.9 °F 43.0 °F 42% 29.85 in 10.0 mi WNW 11.5 mph 18.4 mph N/A   Overcast
5:53 PM 66.9 °F 43.0 °F 42% 29.85 in 10.0 mi NW 8.1 mph 17.3 mph N/A   Mostly Cloudy
6:53 PM 66.9 °F 43.0 °F 42% 29.84 in 10.0 mi WNW 9.2 mph - N/A   Scattered Clouds
7:53 PM 55.9 °F 48.9 °F 77% 29.88 in 6.0 mi NNE 15.0 mph 20.7 mph 0.02 in Rain Light Rain
8:53 PM 54.0 °F 46.9 °F 77% 29.89 in 10.0 mi NNE 3.5 mph - 0.00 in   Scattered Clouds
9:53 PM 50.0 °F 48.0 °F 93% 29.91 in 10.0 mi Calm Calm - N/A   Clear
10:53 PM 48.9 °F 46.9 °F 93% 29.92 in 10.0 mi Calm Calm - N/A   Clear
11:53 PM 48.0 °F 46.0 °F 93% 29.92 in 10.0 mi North 3.5 mph - N/A   Clear